EW4261 Weather Reports


time (UTC)temp
C
wind
direction
speed
KPH
gust
KPH
rain 1hr
cm
rain 24hr
cm
rain mn
cm
humidity
%
barometer
mb
20260506181530 27 102 0.0 6.4 0.00 0.00 0.00 87 1009.2
20260506180011 26 136 3.2 4.8 0.00 0.00 0.00 86 1009.6
20260506174511 26 269 0.0 0.0 0.00 0.00 0.00 85 1010.0
20260506173011 27 269 0.0 3.2 0.00 0.00 0.00 84 1010.4
20260506171515 27 155 0.0 0.0 0.00 0.00 0.00 85 1010.6
20260506170008 27 140 1.6 4.8 0.00 0.00 0.00 86 1010.5
20260506164510 26 194 3.2 6.4 0.00 0.00 0.00 85 1010.6
20260506163012 26 155 3.2 9.7 0.00 0.00 0.00 85 1010.7
20260506161503 26 165 4.8 8.0 0.00 0.00 0.00 86 1010.3
20260506160002 26 219 1.6 8.0 0.00 0.00 0.00 86 1010.0
20260506154501 26 165 4.8 9.7 0.00 0.00 0.00 85 1009.8
20260506153059 26 216 3.2 9.7 0.00 0.00 0.00 87 1009.6
20260506151558 26 144 3.2 9.7 0.00 0.00 0.00 89 1009.7
20260506150055 25 138 3.2 8.0 0.00 0.00 0.00 91 1009.9
20260506144555 25 160 1.6 8.0 0.00 0.00 0.00 92 1009.6
20260506143049 25 159 6.4 9.7 0.00 0.00 0.00 93 1009.3
20260506141548 24 161 6.4 11.3 0.00 0.00 0.00 94 1009.2
20260506140046 24 146 4.8 9.7 0.00 0.00 0.00 95 1009.2
20260506134545 23 157 4.8 12.9 0.00 0.00 0.00 95 1009.3
20260506133058 23 149 3.2 8.0 0.00 0.00 0.00 95 1009.4
20260506131544 23 159 3.2 6.4 0.00 0.00 0.00 95 1009.5
20260506130042 23 153 3.2 6.4 0.00 0.00 0.00 95 1009.3
20260506124541 23 176 0.0 3.2 0.00 0.00 0.00 95 1009.2
20260506123039 23 166 0.0 0.0 0.00 0.00 0.00 95 1009.0
20260506121537 23 158 0.0 1.6 0.00 0.00 0.00 95 1009.0
20260506120036 23 171 0.0 4.8 0.00 0.00 0.00 95 1008.9
20260506114539 23 167 3.2 6.4 0.00 0.00 0.00 95 1008.9
20260506113034 23 150 3.2 9.7 0.00 0.00 0.00 95 1008.6
20260506111533 23 190 3.2 12.9 0.00 0.00 0.00 95 1008.7
20260506110039 23 184 4.8 11.3 0.00 0.00 0.00 95 1008.6
20260506104554 23 167 6.4 12.9 0.00 0.00 0.00 95 1008.4
20260506103038 23 186 8.0 14.5 0.00 0.00 0.00 95 1008.0
20260506101532 23 141 8.0 24.1 0.00 0.00 0.00 95 1007.8
20260506100039 23 171 6.4 16.1 0.00 0.00 0.00 95 1007.8
20260506094533 23 205 6.4 12.9 0.00 0.00 0.00 95 1007.8
20260506093027 23 191 4.8 9.7 0.00 0.00 0.00 95 1007.7
20260506091528 23 160 8.0 16.1 0.00 0.00 0.00 95 1007.4
20260506090025 23 161 6.4 14.5 0.00 0.00 0.00 95 1007.5
20260506084525 23 180 4.8 16.1 0.00 0.00 0.00 95 1007.6
20260506083036 23 157 8.0 22.5 0.00 0.00 0.00 95 1007.3
20260506081523 23 159 11.3 20.9 0.00 0.00 0.00 95 1007.4
20260506073015 23 171 9.7 17.7 0.00 0.00 0.00 94 1008.0
20260506071513 23 158 9.7 17.7 0.00 0.00 0.00 93 1008.2
20260506061506 24 171 11.3 20.9 0.00 0.00 0.00 92 1008.6
20260506044611 25 169 8.0 16.1 0.00 0.00 0.00 91 1008.6
20260506043058 25 155 11.3 20.9 0.00 0.00 0.00 90 1008.3
20260506041556 25 161 14.5 29.0 0.00 0.00 0.00 90 1008.1
20260506040054 25 166 12.9 22.5 0.00 0.00 0.00 90 1008.0
20260506034559 25 163 11.3 22.5 0.00 0.00 0.00 89 1008.0
20260506033054 25 163 11.3 17.7 0.00 0.00 0.00 89 1007.7
20260506031557 25 221 12.9 22.5 0.00 0.00 0.00 88 1007.7
20260506030052 25 204 9.7 16.1 0.00 0.00 0.00 88 1007.8
20260506024552 25 151 8.0 17.7 0.00 0.00 0.00 87 1007.5
20260506023054 25 161 8.0 16.1 0.00 0.00 0.00 87 1007.4
20260506021557 25 218 6.4 12.9 0.00 0.00 0.00 86 1007.3
20260506020050 25 196 8.0 14.5 0.00 0.00 0.00 86 1007.0
20260506014550 25 169 9.7 16.1 0.00 0.00 0.00 86 1006.8
20260506013049 26 156 6.4 16.1 0.00 0.00 0.00 85 1006.5
20260506011552 26 158 9.7 19.3 0.00 0.00 0.00 84 1006.2
20260506010054 26 167 6.4 17.7 0.00 0.00 0.00 84 1006.1
20260506004547 26 165 9.7 20.9 0.00 0.00 0.00 82 1005.9
20260506003047 26 144 8.0 22.5 0.00 0.00 0.00 82 1005.8
20260506001551 26 157 9.7 19.3 0.00 0.00 0.00 81 1005.9
20260506000045 26 175 14.5 22.5 0.00 0.00 0.00 81 1005.8
20260505234606 27 172 14.5 24.1 0.00 0.00 0.00 81 1005.8
20260505233049 27 208 8.0 22.5 0.00 0.00 0.00 80 1005.7
20260505231545 27 247 6.4 19.3 0.00 0.00 0.00 79 1005.7
20260505230047 27 221 9.7 22.5 0.00 0.00 0.00 78 1005.6
20260505224544 27 168 9.7 25.7 0.00 0.00 0.00 78 1005.7
20260505223053 27 147 12.9 25.7 0.00 0.00 0.00 78 1005.5
20260505221543 27 180 8.0 27.4 0.00 0.00 0.00 78 1005.4
20260505220043 28 198 8.0 24.1 0.00 0.00 0.00 78 1005.7
20260505214552 28 162 16.1 25.7 0.00 0.00 0.00 78 1005.7
20260505213038 28 176 11.3 27.4 0.00 0.00 0.00 78 1005.9
20260505211542 28 160 14.5 30.6 0.00 0.00 0.00 78 1006.2
20260505210034 28 171 12.9 27.4 0.00 0.00 0.00 77 1006.4
20260505204534 28 177 11.3 25.7 0.00 0.00 0.00 78 1006.5
20260505203049 28 167 12.9 27.4 0.00 0.00 0.00 75 1006.8
20260505201529 28 194 11.3 32.2 0.00 0.00 0.00 76 1007.0
20260505200027 28 230 16.1 30.6 0.00 0.00 0.00 77 1006.9
20260505194525 28 138 14.5 30.6 0.00 0.00 0.00 77 1007.4
20260505193024 28 167 12.9 30.6 0.00 0.00 0.00 77 1007.5
20260505191523 28 192 14.5 25.7 0.00 0.00 0.00 78 1007.7
20260505190019 27 236 11.3 25.7 0.00 0.00 0.00 80 1007.7
20260505184525 27 231 11.3 27.4 0.00 0.00 0.00 80 1007.8
20260505183021 27 161 12.9 33.8 0.00 0.00 0.00 82 1007.9